| time (UTC) | temp C | wind direction | speed KPH | gust KPH | rain 1hr cm | rain 24hr cm | rain mn cm | humidity % | barometer mb |
| 20260507225436 | 12 | 0.0 | 0.0 | 0.00 | 0.00 | 0.00 | 69 | 947.0 | |
| 20260507225136 | 12 | 0.0 | 0.0 | 0.00 | 0.00 | 0.00 | 69 | 947.0 | |
| 20260507224836 | 12 | 0.0 | 0.0 | 0.00 | 0.00 | 0.00 | 69 | 947.0 | |
| 20260507223936 | 13 | 0.0 | 0.0 | 0.00 | 0.00 | 0.00 | 66 | 947.0 | |
| 20260507223636 | 13 | 0.0 | 0.0 | 0.00 | 0.00 | 0.00 | 66 | 947.0 | |
| 20260507223336 | 13 | 0.0 | 0.0 | 0.00 | 0.00 | 0.00 | 66 | 947.0 | |
| 20260507223035 | 13 | 0.0 | 0.0 | 0.00 | 0.00 | 0.00 | 66 | 947.0 | |
| 20260507222736 | 13 | 0.0 | 0.0 | 0.00 | 0.00 | 0.00 | 65 | 947.0 | |
| 20260507222436 | 13 | 0.0 | 0.0 | 0.00 | 0.00 | 0.00 | 65 | 947.0 | |
| 20260507222136 | 13 | 0.0 | 0.0 | 0.00 | 0.00 | 0.00 | 65 | 947.0 | |
| 20260507221536 | 14 | 0.0 | 0.0 | 0.00 | 0.00 | 0.00 | 64 | 947.0 | |
| 20260507221235 | 14 | 0.0 | 0.0 | 0.00 | 0.00 | 0.00 | 64 | 947.0 | |
| 20260507220936 | 14 | 0.0 | 0.0 | 0.00 | 0.00 | 0.00 | 64 | 947.0 | |
| 20260507220635 | 14 | 0.0 | 0.0 | 0.00 | 0.00 | 0.00 | 64 | 947.0 | |
| 20260507220336 | 14 | 0.0 | 0.0 | 0.00 | 0.00 | 0.00 | 64 | 947.0 | |
| 20260507220036 | 14 | 0.0 | 0.0 | 0.00 | 0.00 | 0.00 | 64 | 947.0 | |
| 20260507215736 | 14 | 0.0 | 0.0 | 0.00 | 0.00 | 0.00 | 64 | 947.0 | |
| 20260507215136 | 13 | 0.0 | 0.0 | 0.00 | 0.00 | 0.00 | 66 | 947.0 | |
| 20260507214836 | 13 | 0.0 | 0.0 | 0.00 | 0.00 | 0.00 | 66 | 947.0 | |
| 20260507214536 | 13 | 0.0 | 0.0 | 0.00 | 0.00 | 0.00 | 66 | 947.0 | |
| 20260507214235 | 13 | 0.0 | 0.0 | 0.00 | 0.00 | 0.00 | 66 | 947.0 | |
| 20260507213936 | 13 | 0.0 | 0.0 | 0.00 | 0.00 | 0.00 | 66 | 947.0 | |
| 20260507213636 | 13 | 0.0 | 0.0 | 0.00 | 0.00 | 0.00 | 66 | 947.0 | |
| 20260507213336 | 13 | 0.0 | 0.0 | 0.00 | 0.00 | 0.00 | 66 | 947.0 | |
| 20260507213036 | 13 | 0.0 | 0.0 | 0.00 | 0.00 | 0.00 | 66 | 947.1 | |
| 20260507212735 | 13 | 0.0 | 0.0 | 0.00 | 0.00 | 0.00 | 66 | 947.1 | |
| 20260507212436 | 13 | 0.0 | 0.0 | 0.00 | 0.00 | 0.00 | 66 | 947.1 | |
| 20260507212136 | 13 | 0.0 | 0.0 | 0.00 | 0.00 | 0.00 | 66 | 947.1 | |
| 20260507211536 | 13 | 0.0 | 0.0 | 0.00 | 0.00 | 0.00 | 66 | 947.0 | |
| 20260507210636 | 13 | 0.0 | 0.0 | 0.00 | 0.00 | 0.00 | 66 | 947.0 | |
| 20260507210336 | 13 | 0.0 | 0.0 | 0.00 | 0.00 | 0.00 | 66 | 947.0 | |
| 20260507210036 | 13 | 0.0 | 0.0 | 0.00 | 0.00 | 0.00 | 66 | 947.0 | |
| 20260507205735 | 13 | 0.0 | 0.0 | 0.00 | 0.00 | 0.00 | 65 | 946.0 | |
| 20260507205436 | 13 | 0.0 | 0.0 | 0.00 | 0.00 | 0.00 | 65 | 946.0 | |
| 20260507205135 | 15 | 0.0 | 0.0 | 0.00 | 0.00 | 0.00 | 62 | 946.7 | |
| 20260507204836 | 15 | 0.0 | 0.0 | 0.00 | 0.00 | 0.00 | 62 | 946.7 | |
| 20260507204536 | 15 | 0.0 | 0.0 | 0.00 | 0.00 | 0.00 | 62 | 946.7 | |
| 20260507204236 | 15 | 0.0 | 0.0 | 0.00 | 0.00 | 0.00 | 62 | 946.7 | |
| 20260507203936 | 15 | 0.0 | 0.0 | 0.00 | 0.00 | 0.00 | 62 | 946.7 | |
| 20260507203336 | 15 | 0.0 | 0.0 | 0.00 | 0.00 | 0.00 | 62 | 946.7 | |
| 20260507203036 | 15 | 0.0 | 0.0 | 0.00 | 0.00 | 0.00 | 62 | 946.7 | |
| 20260507202736 | 15 | 0.0 | 0.0 | 0.00 | 0.00 | 0.00 | 62 | 946.7 | |
| 20260507202436 | 15 | 0.0 | 0.0 | 0.00 | 0.00 | 0.00 | 62 | 946.7 | |
| 20260507202136 | 15 | 0.0 | 0.0 | 0.00 | 0.00 | 0.00 | 62 | 946.7 | |
| 20260507201836 | 14 | 0.0 | 0.0 | 0.00 | 0.00 | 0.00 | 63 | 946.0 | |
| 20260507201235 | 14 | 0.0 | 0.0 | 0.00 | 0.00 | 0.00 | 63 | 946.0 | |
| 20260507200935 | 14 | 0.0 | 0.0 | 0.00 | 0.00 | 0.00 | 63 | 946.0 | |
| 20260507200636 | 14 | 0.0 | 0.0 | 0.00 | 0.00 | 0.00 | 63 | 946.0 | |
| 20260507200335 | 14 | 0.0 | 0.0 | 0.00 | 0.00 | 0.00 | 63 | 946.0 | |
| 20260507195735 | 15 | 0.0 | 0.0 | 0.00 | 0.00 | 0.00 | 62 | 946.0 | |
| 20260507195435 | 15 | 0.0 | 0.0 | 0.00 | 0.00 | 0.00 | 62 | 946.0 | |
| 20260507195135 | 15 | 0.0 | 0.0 | 0.00 | 0.00 | 0.00 | 62 | 946.0 | |
| 20260507194836 | 15 | 0.0 | 0.0 | 0.00 | 0.00 | 0.00 | 62 | 946.0 | |
| 20260507194536 | 15 | 0.0 | 0.0 | 0.00 | 0.00 | 0.00 | 60 | 946.0 | |
| 20260507193936 | 15 | 0.0 | 0.0 | 0.00 | 0.00 | 0.00 | 60 | 946.0 | |
| 20260507193635 | 16 | 0.0 | 0.0 | 0.00 | 0.00 | 0.00 | 57 | 946.4 | |
| 20260507193335 | 16 | 0.0 | 0.0 | 0.00 | 0.00 | 0.00 | 57 | 946.4 | |
| 20260507193036 | 16 | 0.0 | 0.0 | 0.00 | 0.00 | 0.00 | 57 | 946.4 | |
| 20260507192736 | 16 | 0.0 | 0.0 | 0.00 | 0.00 | 0.00 | 57 | 946.4 | |
| 20260507191836 | 16 | 0.0 | 0.0 | 0.00 | 0.00 | 0.00 | 54 | 946.0 | |
| 20260507191536 | 16 | 0.0 | 0.0 | 0.00 | 0.00 | 0.00 | 54 | 945.0 | |
| 20260507190936 | 16 | 0.0 | 0.0 | 0.00 | 0.00 | 0.00 | 54 | 945.0 | |
| 20260507190636 | 16 | 0.0 | 0.0 | 0.00 | 0.00 | 0.00 | 54 | 945.0 | |
| 20260507190336 | 16 | 0.0 | 0.0 | 0.00 | 0.00 | 0.00 | 54 | 945.0 | |
| 20260507190035 | 16 | 0.0 | 0.0 | 0.00 | 0.00 | 0.00 | 54 | 945.0 | |
| 20260507185735 | 16 | 0.0 | 0.0 | 0.00 | 0.00 | 0.00 | 54 | 945.0 | |
| 20260507185436 | 16 | 0.0 | 0.0 | 0.00 | 0.00 | 0.00 | 54 | 945.0 | |
| 20260507185136 | 16 | 0.0 | 0.0 | 0.00 | 0.00 | 0.00 | 54 | 945.0 | |
| 20260507184835 | 16 | 0.0 | 0.0 | 0.00 | 0.00 | 0.00 | 54 | 945.0 | |
| 20260507184536 | 16 | 0.0 | 0.0 | 0.00 | 0.00 | 0.00 | 54 | 945.0 | |
| 20260507184235 | 16 | 0.0 | 0.0 | 0.00 | 0.00 | 0.00 | 54 | 945.6 | |
| 20260507183935 | 16 | 0.0 | 0.0 | 0.00 | 0.00 | 0.00 | 54 | 945.6 | |
| 20260507183636 | 16 | 0.0 | 0.0 | 0.00 | 0.00 | 0.00 | 54 | 945.6 | |
| 20260507183336 | 16 | 0.0 | 0.0 | 0.00 | 0.00 | 0.00 | 54 | 945.0 | |
| 20260507183036 | 16 | 0.0 | 0.0 | 0.00 | 0.00 | 0.00 | 54 | 945.0 | |
| 20260507182436 | 16 | 0.0 | 0.0 | 0.00 | 0.00 | 0.00 | 53 | 945.0 | |
| 20260507182136 | 16 | 0.0 | 0.0 | 0.00 | 0.00 | 0.00 | 53 | 945.0 | |
| 20260507181835 | 16 | 0.0 | 0.0 | 0.00 | 0.00 | 0.00 | 52 | 945.0 | |
| 20260507181536 | 16 | 0.0 | 0.0 | 0.00 | 0.00 | 0.00 | 52 | 945.0 | |
| 20260507181235 | 16 | 0.0 | 0.0 | 0.00 | 0.00 | 0.00 | 52 | 945.0 | |
| 20260507180935 | 16 | 0.0 | 0.0 | 0.00 | 0.00 | 0.00 | 52 | 945.0 | |
| 20260507180635 | 17 | 0.0 | 0.0 | 0.00 | 0.00 | 0.00 | 51 | 945.0 | |
| 20260507180336 | 17 | 0.0 | 0.0 | 0.00 | 0.00 | 0.00 | 51 | 945.0 | |
| 20260507180036 | 17 | 0.0 | 0.0 | 0.00 | 0.00 | 0.00 | 51 | 945.0 | |
| 20260507175736 | 17 | 0.0 | 0.0 | 0.00 | 0.00 | 0.00 | 51 | 945.0 | |
| 20260507175436 | 17 | 0.0 | 0.0 | 0.00 | 0.00 | 0.00 | 51 | 945.0 | |
| 20260507175136 | 17 | 0.0 | 0.0 | 0.00 | 0.00 | 0.00 | 46 | 945.0 | |
| 20260507174536 | 17 | 0.0 | 0.0 | 0.00 | 0.00 | 0.00 | 46 | 945.0 | |
| 20260507174236 | 17 | 0.0 | 0.0 | 0.00 | 0.00 | 0.00 | 46 | 945.0 | |
| 20260507173936 | 17 | 0.0 | 0.0 | 0.00 | 0.00 | 0.00 | 47 | 944.0 | |
| 20260507173336 | 17 | 0.0 | 0.0 | 0.00 | 0.00 | 0.00 | 47 | 944.0 | |
| 20260507173035 | 17 | 0.0 | 0.0 | 0.00 | 0.00 | 0.00 | 47 | 944.0 | |
| 20260507172736 | 17 | 0.0 | 0.0 | 0.00 | 0.00 | 0.00 | 47 | 944.0 | |
| 20260507172436 | 17 | 0.0 | 0.0 | 0.00 | 0.00 | 0.00 | 47 | 944.0 | |
| 20260507172135 | 17 | 0.0 | 0.0 | 0.00 | 0.00 | 0.00 | 47 | 944.0 | |
| 20260507171836 | 17 | 0.0 | 0.0 | 0.00 | 0.00 | 0.00 | 47 | 944.0 | |
| 20260507171535 | 17 | 0.0 | 0.0 | 0.00 | 0.00 | 0.00 | 47 | 944.0 | |
| 20260507171236 | 17 | 0.0 | 0.0 | 0.00 | 0.00 | 0.00 | 47 | 944.0 | |
| 20260507170935 | 17 | 0.0 | 0.0 | 0.00 | 0.00 | 0.00 | 47 | 944.0 | |
| 20260507170635 | 17 | 0.0 | 0.0 | 0.00 | 0.00 | 0.00 | 47 | 944.0 | |
| 20260507170336 | 17 | 0.0 | 0.0 | 0.00 | 0.00 | 0.00 | 47 | 944.0 | |
| 20260507170036 | 18 | 0.0 | 0.0 | 0.00 | 0.00 | 0.00 | 47 | 944.9 | |
| 20260507165736 | 18 | 0.0 | 0.0 | 0.00 | 0.00 | 0.00 | 47 | 944.9 | |
| 20260507165436 | 18 | 0.0 | 0.0 | 0.00 | 0.00 | 0.00 | 47 | 944.9 | |
| 20260507165136 | 18 | 0.0 | 0.0 | 0.00 | 0.00 | 0.00 | 47 | 944.9 | |
| 20260507164835 | 17 | 0.0 | 0.0 | 0.00 | 0.00 | 0.00 | 49 | 944.0 | |
| 20260507164536 | 17 | 0.0 | 0.0 | 0.00 | 0.00 | 0.00 | 49 | 944.0 | |
| 20260507164236 | 17 | 0.0 | 0.0 | 0.00 | 0.00 | 0.00 | 49 | 944.0 | |
| 20260507163936 | 17 | 0.0 | 0.0 | 0.00 | 0.00 | 0.00 | 49 | 944.0 | |
| 20260507163636 | 17 | 0.0 | 0.0 | 0.00 | 0.00 | 0.00 | 49 | 944.0 | |
| 20260507163336 | 17 | 0.0 | 0.0 | 0.00 | 0.00 | 0.00 | 49 | 944.0 | |
| 20260507163036 | 17 | 0.0 | 0.0 | 0.00 | 0.00 | 0.00 | 49 | 944.0 | |
| 20260507162735 | 17 | 0.0 | 0.0 | 0.00 | 0.00 | 0.00 | 49 | 944.0 | |
| 20260507162435 | 17 | 0.0 | 0.0 | 0.00 | 0.00 | 0.00 | 49 | 944.0 | |
| 20260507160936 | 17 | 0.0 | 0.0 | 0.00 | 0.00 | 0.00 | 49 | 944.0 | |
| 20260507160636 | 17 | 0.0 | 0.0 | 0.00 | 0.00 | 0.00 | 49 | 944.0 | |
| 20260507160336 | 18 | 0.0 | 0.0 | 0.00 | 0.00 | 0.00 | 47 | 944.8 | |
| 20260507160036 | 18 | 0.0 | 0.0 | 0.00 | 0.00 | 0.00 | 47 | 944.8 | |
| 20260507155736 | 18 | 0.0 | 0.0 | 0.00 | 0.00 | 0.00 | 47 | 944.8 | |
| 20260507155436 | 18 | 0.0 | 0.0 | 0.00 | 0.00 | 0.00 | 45 | 944.0 | |
| 20260507155135 | 18 | 0.0 | 0.0 | 0.00 | 0.00 | 0.00 | 41 | 944.0 | |
| 20260507154836 | 18 | 0.0 | 0.0 | 0.00 | 0.00 | 0.00 | 41 | 944.0 | |
| 20260507154536 | 18 | 0.0 | 0.0 | 0.00 | 0.00 | 0.00 | 41 | 944.0 | |
| 20260507154236 | 18 | 0.0 | 0.0 | 0.00 | 0.00 | 0.00 | 41 | 944.0 | |
| 20260507153936 | 18 | 0.0 | 0.0 | 0.00 | 0.00 | 0.00 | 41 | 944.0 | |
| 20260507153336 | 18 | 0.0 | 0.0 | 0.00 | 0.00 | 0.00 | 41 | 944.0 | |
| 20260507153036 | 18 | 0.0 | 0.0 | 0.00 | 0.00 | 0.00 | 41 | 944.0 | |
| 20260507152736 | 18 | 0.0 | 0.0 | 0.00 | 0.00 | 0.00 | 41 | 944.0 | |
| 20260507152436 | 18 | 0.0 | 0.0 | 0.00 | 0.00 | 0.00 | 41 | 944.0 | |
| 20260507152135 | 19 | 0.0 | 0.0 | 0.00 | 0.00 | 0.00 | 41 | 944.0 | |
| 20260507151836 | 19 | 0.0 | 0.0 | 0.00 | 0.00 | 0.00 | 41 | 944.0 | |
| 20260507151536 | 19 | 0.0 | 0.0 | 0.00 | 0.00 | 0.00 | 41 | 944.0 | |
| 20260507151235 | 19 | 0.0 | 0.0 | 0.00 | 0.00 | 0.00 | 41 | 944.0 | |
| 20260507150935 | 19 | 0.0 | 0.0 | 0.00 | 0.00 | 0.00 | 41 | 944.0 | |
| 20260507150336 | 20 | 0.0 | 0.0 | 0.00 | 0.00 | 0.00 | 41 | 944.0 | |
| 20260507150036 | 20 | 0.0 | 0.0 | 0.00 | 0.00 | 0.00 | 41 | 944.0 | |
| 20260507145736 | 20 | 0.0 | 0.0 | 0.00 | 0.00 | 0.00 | 40 | 944.0 | |
| 20260507145436 | 21 | 0.0 | 0.0 | 0.00 | 0.00 | 0.00 | 41 | 944.0 | |
| 20260507145136 | 21 | 0.0 | 0.0 | 0.00 | 0.00 | 0.00 | 41 | 944.0 | |
| 20260507144836 | 21 | 0.0 | 0.0 | 0.00 | 0.00 | 0.00 | 41 | 944.0 | |
| 20260507144535 | 21 | 0.0 | 0.0 | 0.00 | 0.00 | 0.00 | 41 | 944.0 | |
| 20260507144235 | 21 | 0.0 | 0.0 | 0.00 | 0.00 | 0.00 | 41 | 944.0 | |
| 20260507143636 | 20 | 0.0 | 0.0 | 0.00 | 0.00 | 0.00 | 45 | 945.0 | |
| 20260507143336 | 20 | 0.0 | 0.0 | 0.00 | 0.00 | 0.00 | 45 | 945.0 | |
| 20260507143036 | 20 | 0.0 | 0.0 | 0.00 | 0.00 | 0.00 | 45 | 945.0 | |
| 20260507142736 | 20 | 0.0 | 0.0 | 0.00 | 0.00 | 0.00 | 45 | 945.0 | |
| 20260507142436 | 20 | 0.0 | 0.0 | 0.00 | 0.00 | 0.00 | 45 | 945.0 | |
| 20260507142135 | 20 | 0.0 | 0.0 | 0.00 | 0.00 | 0.00 | 47 | 945.0 | |
| 20260507141836 | 20 | 0.0 | 0.0 | 0.00 | 0.00 | 0.00 | 47 | 945.0 | |
| 20260507141536 | 20 | 0.0 | 0.0 | 0.00 | 0.00 | 0.00 | 47 | 945.0 | |
| 20260507140936 | 20 | 0.0 | 0.0 | 0.00 | 0.00 | 0.00 | 49 | 945.0 | |
| 20260507140636 | 19 | 0.0 | 0.0 | 0.00 | 0.00 | 0.00 | 49 | 945.2 | |
| 20260507140335 | 19 | 0.0 | 0.0 | 0.00 | 0.00 | 0.00 | 50 | 945.0 | |
| 20260507140036 | 18 | 0.0 | 0.0 | 0.00 | 0.00 | 0.00 | 51 | 945.0 | |
| 20260507135736 | 18 | 0.0 | 0.0 | 0.00 | 0.00 | 0.00 | 54 | 945.0 | |
| 20260507135436 | 18 | 0.0 | 0.0 | 0.00 | 0.00 | 0.00 | 54 | 945.0 | |
| 20260507134836 | 17 | 0.0 | 0.0 | 0.00 | 0.00 | 0.00 | 54 | 945.0 | |
| 20260507134536 | 17 | 0.0 | 0.0 | 0.00 | 0.00 | 0.00 | 54 | 945.0 | |
| 20260507134235 | 17 | 0.0 | 0.0 | 0.00 | 0.00 | 0.00 | 54 | 945.0 | |
| 20260507133935 | 18 | 0.0 | 0.0 | 0.00 | 0.00 | 0.00 | 51 | 945.0 | |
| 20260507133636 | 18 | 0.0 | 0.0 | 0.00 | 0.00 | 0.00 | 51 | 945.0 | |
| 20260507133336 | 18 | 0.0 | 0.0 | 0.00 | 0.00 | 0.00 | 51 | 945.0 | |
| 20260507133035 | 18 | 0.0 | 0.0 | 0.00 | 0.00 | 0.00 | 51 | 945.0 | |
| 20260507132436 | 18 | 0.0 | 0.0 | 0.00 | 0.00 | 0.00 | 44 | 945.0 | |
| 20260507132136 | 18 | 0.0 | 0.0 | 0.00 | 0.00 | 0.00 | 44 | 945.0 | |
| 20260507131536 | 19 | 0.0 | 0.0 | 0.00 | 0.00 | 0.00 | 42 | 945.0 | |
| 20260507130936 | 20 | 0.0 | 0.0 | 0.00 | 0.00 | 0.00 | 41 | 945.0 | |
| 20260507130635 | 20 | 0.0 | 0.0 | 0.00 | 0.00 | 0.00 | 41 | 945.0 | |
| 20260507130336 | 20 | 0.0 | 0.0 | 0.00 | 0.00 | 0.00 | 41 | 945.0 | |
| 20260507125736 | 20 | 0.0 | 0.0 | 0.00 | 0.00 | 0.00 | 38 | 944.0 | |
| 20260507125435 | 20 | 0.0 | 0.0 | 0.00 | 0.00 | 0.00 | 38 | 944.0 | |
| 20260507125135 | 20 | 0.0 | 0.0 | 0.00 | 0.00 | 0.00 | 38 | 944.0 | |
| 20260507124836 | 20 | 0.0 | 0.0 | 0.00 | 0.00 | 0.00 | 38 | 944.0 | |
| 20260507124536 | 20 | 0.0 | 0.0 | 0.00 | 0.00 | 0.00 | 38 | 944.0 | |
| 20260507124236 | 20 | 0.0 | 0.0 | 0.00 | 0.00 | 0.00 | 38 | 944.0 | |
| 20260507123936 | 20 | 0.0 | 0.0 | 0.00 | 0.00 | 0.00 | 40 | 944.0 | |
| 20260507123636 | 20 | 0.0 | 0.0 | 0.00 | 0.00 | 0.00 | 40 | 944.0 | |
| 20260507123335 | 20 | 0.0 | 0.0 | 0.00 | 0.00 | 0.00 | 40 | 944.0 | |
| 20260507123036 | 21 | 0.0 | 0.0 | 0.00 | 0.00 | 0.00 | 40 | 944.0 | |
| 20260507122736 | 21 | 0.0 | 0.0 | 0.00 | 0.00 | 0.00 | 39 | 944.8 | |
| 20260507122436 | 21 | 0.0 | 0.0 | 0.00 | 0.00 | 0.00 | 39 | 944.8 | |
| 20260507122136 | 21 | 0.0 | 0.0 | 0.00 | 0.00 | 0.00 | 39 | 944.8 | |
| 20260507121236 | 21 | 0.0 | 0.0 | 0.00 | 0.00 | 0.00 | 40 | 945.0 | |
| 20260507120935 | 21 | 0.0 | 0.0 | 0.00 | 0.00 | 0.00 | 40 | 945.0 | |
| 20260507120635 | 21 | 0.0 | 0.0 | 0.00 | 0.00 | 0.00 | 40 | 945.0 | |
| 20260507120036 | 21 | 0.0 | 0.0 | 0.00 | 0.00 | 0.00 | 40 | 945.0 | |
| 20260507115436 | 21 | 0.0 | 0.0 | 0.00 | 0.00 | 0.00 | 40 | 945.0 | |
| 20260507115136 | 21 | 0.0 | 0.0 | 0.00 | 0.00 | 0.00 | 39 | 945.3 | |
| 20260507114836 | 21 | 0.0 | 0.0 | 0.00 | 0.00 | 0.00 | 39 | 945.3 | |
| 20260507114236 | 21 | 0.0 | 0.0 | 0.00 | 0.00 | 0.00 | 40 | 945.0 | |
| 20260507113935 | 21 | 0.0 | 0.0 | 0.00 | 0.00 | 0.00 | 39 | 945.0 | |
| 20260507113636 | 21 | 0.0 | 0.0 | 0.00 | 0.00 | 0.00 | 41 | 945.0 | |
| 20260507113336 | 20 | 0.0 | 0.0 | 0.00 | 0.00 | 0.00 | 40 | 945.0 | |
| 20260507113036 | 21 | 0.0 | 0.0 | 0.00 | 0.00 | 0.00 | 40 | 945.0 | |
| 20260507112736 | 21 | 0.0 | 0.0 | 0.00 | 0.00 | 0.00 | 40 | 945.0 | |
| 20260507112436 | 21 | 0.0 | 0.0 | 0.00 | 0.00 | 0.00 | 40 | 945.0 | |
| 20260507112136 | 21 | 0.0 | 0.0 | 0.00 | 0.00 | 0.00 | 40 | 945.0 | |
| 20260507111836 | 21 | 0.0 | 0.0 | 0.00 | 0.00 | 0.00 | 40 | 945.0 | |
| 20260507111536 | 21 | 0.0 | 0.0 | 0.00 | 0.00 | 0.00 | 40 | 945.0 | |
| 20260507111236 | 21 | 0.0 | 0.0 | 0.00 | 0.00 | 0.00 | 40 | 945.0 | |
| 20260507110636 | 21 | 0.0 | 0.0 | 0.00 | 0.00 | 0.00 | 40 | 945.0 | |
| 20260507105736 | 21 | 0.0 | 0.0 | 0.00 | 0.00 | 0.00 | 38 | 945.0 | |
| 20260507105435 | 21 | 0.0 | 0.0 | 0.00 | 0.00 | 0.00 | 38 | 945.0 | |
| 20260507105135 | 21 | 0.0 | 0.0 | 0.00 | 0.00 | 0.00 | 38 | 945.0 | |
| 20260507104836 | 21 | 0.0 | 0.0 | 0.00 | 0.00 | 0.00 | 38 | 945.0 | |
| 20260507104536 | 22 | 0.0 | 0.0 | 0.00 | 0.00 | 0.00 | 37 | 945.0 | |
| 20260507104236 | 22 | 0.0 | 0.0 | 0.00 | 0.00 | 0.00 | 36 | 945.0 | |
| 20260507103036 | 24 | 0.0 | 0.0 | 0.00 | 0.00 | 0.00 | 34 | 946.0 | |
| 20260507102736 | 25 | 0.0 | 0.0 | 0.00 | 0.00 | 0.00 | 33 | 946.0 | |
| 20260507102435 | 25 | 0.0 | 0.0 | 0.00 | 0.00 | 0.00 | 33 | 946.0 | |
| 20260507102136 | 25 | 0.0 | 0.0 | 0.00 | 0.00 | 0.00 | 32 | 946.0 | |
| 20260507101836 | 25 | 0.0 | 0.0 | 0.00 | 0.00 | 0.00 | 32 | 945.9 | |
| 20260507101236 | 27 | 0.0 | 0.0 | 0.00 | 0.00 | 0.00 | 31 | 946.0 | |
| 20260507100935 | 27 | 0.0 | 0.0 | 0.00 | 0.00 | 0.00 | 31 | 946.0 | |
| 20260507100636 | 27 | 0.0 | 0.0 | 0.00 | 0.00 | 0.00 | 31 | 945.0 | |
| 20260507100336 | 27 | 0.0 | 0.0 | 0.00 | 0.00 | 0.00 | 30 | 945.0 | |
| 20260507095736 | 29 | 0.0 | 0.0 | 0.00 | 0.00 | 0.00 | 28 | 945.0 | |
| 20260507095436 | 30 | 0.0 | 0.0 | 0.00 | 0.00 | 0.00 | 27 | 945.0 | |
| 20260507095136 | 32 | 0.0 | 0.0 | 0.00 | 0.00 | 0.00 | 25 | 945.0 | |
| 20260507094835 | 37 | 0.0 | 0.0 | 0.00 | 0.00 | 0.00 | 22 | 945.0 | |
| 20260507094536 | 37 | 0.0 | 0.0 | 0.00 | 0.00 | 0.00 | 22 | 945.0 | |
| 20260507094235 | 36 | 0.0 | 0.0 | 0.00 | 0.00 | 0.00 | 22 | 945.0 | |
| 20260507093636 | 36 | 0.0 | 0.0 | 0.00 | 0.00 | 0.00 | 23 | 945.0 | |
| 20260507093335 | 34 | 0.0 | 0.0 | 0.00 | 0.00 | 0.00 | 24 | 945.0 | |
| 20260507092736 | 38 | 0.0 | 0.0 | 0.00 | 0.00 | 0.00 | 21 | 945.0 | |
| 20260507092436 | 36 | 0.0 | 0.0 | 0.00 | 0.00 | 0.00 | 23 | 945.0 | |
| 20260507092136 | 35 | 0.0 | 0.0 | 0.00 | 0.00 | 0.00 | 22 | 946.0 | |
| 20260507091836 | 36 | 0.0 | 0.0 | 0.00 | 0.00 | 0.00 | 22 | 946.0 | |
| 20260507091536 | 37 | 0.0 | 0.0 | 0.00 | 0.00 | 0.00 | 22 | 946.0 | |
| 20260507091235 | 37 | 0.0 | 0.0 | 0.00 | 0.00 | 0.00 | 21 | 945.0 | |
| 20260507090936 | 39 | 0.0 | 0.0 | 0.00 | 0.00 | 0.00 | 22 | 945.0 | |
| 20260507090636 | 39 | 0.0 | 0.0 | 0.00 | 0.00 | 0.00 | 22 | 945.0 | |
| 20260507090336 | 38 | 0.0 | 0.0 | 0.00 | 0.00 | 0.00 | 23 | 945.0 | |
| 20260507090036 | 36 | 0.0 | 0.0 | 0.00 | 0.00 | 0.00 | 24 | 945.0 | |
| 20260507085735 | 34 | 0.0 | 0.0 | 0.00 | 0.00 | 0.00 | 26 | 945.0 | |
| 20260507085436 | 33 | 0.0 | 0.0 | 0.00 | 0.00 | 0.00 | 27 | 945.0 | |
| 20260507085135 | 32 | 0.0 | 0.0 | 0.00 | 0.00 | 0.00 | 27 | 945.0 | |
| 20260507084836 | 31 | 0.0 | 0.0 | 0.00 | 0.00 | 0.00 | 28 | 945.0 | |
| 20260507084536 | 29 | 0.0 | 0.0 | 0.00 | 0.00 | 0.00 | 29 | 945.0 | |
| 20260507084235 | 30 | 0.0 | 0.0 | 0.00 | 0.00 | 0.00 | 29 | 945.0 | |
| 20260507083636 | 32 | 0.0 | 0.0 | 0.00 | 0.00 | 0.00 | 26 | 945.0 | |
| 20260507083335 | 33 | 0.0 | 0.0 | 0.00 | 0.00 | 0.00 | 26 | 945.0 | |
| 20260507083035 | 32 | 0.0 | 0.0 | 0.00 | 0.00 | 0.00 | 27 | 945.0 | |
| 20260507082736 | 33 | 0.0 | 0.0 | 0.00 | 0.00 | 0.00 | 28 | 945.7 | |
| 20260507082435 | 30 | 0.0 | 0.0 | 0.00 | 0.00 | 0.00 | 29 | 945.0 | |
| 20260507081535 | 31 | 0.0 | 0.0 | 0.00 | 0.00 | 0.00 | 30 | 945.0 | |
| 20260507081236 | 29 | 0.0 | 0.0 | 0.00 | 0.00 | 0.00 | 32 | 945.0 | |
| 20260507080936 | 28 | 0.0 | 0.0 | 0.00 | 0.00 | 0.00 | 30 | 945.0 | |
| 20260507080636 | 29 | 0.0 | 0.0 | 0.00 | 0.00 | 0.00 | 30 | 945.0 | |
| 20260507080335 | 31 | 0.0 | 0.0 | 0.00 | 0.00 | 0.00 | 28 | 945.0 | |
| 20260507075736 | 29 | 0.0 | 0.0 | 0.00 | 0.00 | 0.00 | 31 | 945.0 | |
| 20260507075436 | 30 | 0.0 | 0.0 | 0.00 | 0.00 | 0.00 | 30 | 945.0 | |
| 20260507075136 | 30 | 0.0 | 0.0 | 0.00 | 0.00 | 0.00 | 32 | 945.0 | |
| 20260507074536 | 29 | 0.0 | 0.0 | 0.00 | 0.00 | 0.00 | 33 | 945.0 | |
| 20260507074236 | 28 | 0.0 | 0.0 | 0.00 | 0.00 | 0.00 | 35 | 945.0 | |
| 20260507073936 | 29 | 0.0 | 0.0 | 0.00 | 0.00 | 0.00 | 35 | 945.0 | |
| 20260507073635 | 27 | 0.0 | 0.0 | 0.00 | 0.00 | 0.00 | 34 | 945.0 | |
| 20260507073336 | 27 | 0.0 | 0.0 | 0.00 | 0.00 | 0.00 | 38 | 945.0 | |
| 20260507073035 | 27 | 0.0 | 0.0 | 0.00 | 0.00 | 0.00 | 38 | 945.0 | |
| 20260507072735 | 25 | 0.0 | 0.0 | 0.00 | 0.00 | 0.00 | 42 | 945.0 | |
| 20260507072135 | 21 | 0.0 | 0.0 | 0.00 | 0.00 | 0.00 | 49 | 945.0 | |
| 20260507071836 | 19 | 0.0 | 0.0 | 0.00 | 0.00 | 0.00 | 51 | 945.0 | |
| 20260507071536 | 17 | 0.0 | 0.0 | 0.00 | 0.00 | 0.00 | 55 | 946.0 | |
| 20260507070935 | 17 | 0.0 | 0.0 | 0.00 | 0.00 | 0.00 | 54 | 945.0 | |
| 20260507070635 | 17 | 0.0 | 0.0 | 0.00 | 0.00 | 0.00 | 60 | 946.0 | |
| 20260507070335 | 13 | 0.0 | 0.0 | 0.00 | 0.00 | 0.00 | 68 | 946.0 | |
| 20260507070036 | 12 | 0.0 | 0.0 | 0.00 | 0.00 | 0.00 | 71 | 946.0 | |
| 20260507065736 | 11 | 0.0 | 0.0 | 0.00 | 0.00 | 0.00 | 72 | 946.6 | |
| 20260507065135 | 11 | 0.0 | 0.0 | 0.00 | 0.00 | 0.00 | 73 | 946.0 | |
| 20260507064835 | 11 | 0.0 | 0.0 | 0.00 | 0.00 | 0.00 | 73 | 946.0 | |
| 20260507064536 | 11 | 0.0 | 0.0 | 0.00 | 0.00 | 0.00 | 73 | 946.0 | |
| 20260507064235 | 11 | 0.0 | 0.0 | 0.00 | 0.00 | 0.00 | 73 | 946.0 | |
| 20260507063936 | 11 | 0.0 | 0.0 | 0.00 | 0.00 | 0.00 | 75 | 946.0 | |
| 20260507063636 | 10 | 0.0 | 0.0 | 0.00 | 0.00 | 0.00 | 75 | 946.0 | |
| 20260507063336 | 10 | 0.0 | 0.0 | 0.00 | 0.00 | 0.00 | 75 | 946.0 | |
| 20260507063036 | 10 | 0.0 | 0.0 | 0.00 | 0.00 | 0.00 | 75 | 946.0 | |
| 20260507062736 | 11 | 0.0 | 0.0 | 0.00 | 0.00 | 0.00 | 73 | 946.0 | |
| 20260507062436 | 11 | 0.0 | 0.0 | 0.00 | 0.00 | 0.00 | 72 | 946.0 | |
| 20260507061236 | 11 | 0.0 | 0.0 | 0.00 | 0.00 | 0.00 | 74 | 946.0 | |
| 20260507060636 | 10 | 0.0 | 0.0 | 0.00 | 0.00 | 0.00 | 75 | 946.0 | |
| 20260507060336 | 10 | 0.0 | 0.0 | 0.00 | 0.00 | 0.00 | 75 | 946.0 | |
| 20260507060035 | 10 | 0.0 | 0.0 | 0.00 | 0.00 | 0.00 | 75 | 946.0 | |
| 20260507055736 | 10 | 0.0 | 0.0 | 0.00 | 0.00 | 0.00 | 75 | 946.0 | |
| 20260507055436 | 10 | 0.0 | 0.0 | 0.00 | 0.00 | 0.00 | 76 | 946.0 | |
| 20260507055136 | 10 | 0.0 | 0.0 | 0.00 | 0.00 | 0.00 | 76 | 946.0 | |
| 20260507054835 | 10 | 0.0 | 0.0 | 0.00 | 0.00 | 0.00 | 76 | 946.0 | |
| 20260507054535 | 10 | 0.0 | 0.0 | 0.00 | 0.00 | 0.00 | 76 | 946.0 | |
| 20260507054236 | 10 | 0.0 | 0.0 | 0.00 | 0.00 | 0.00 | 76 | 946.0 | |
| 20260507053935 | 10 | 0.0 | 0.0 | 0.00 | 0.00 | 0.00 | 75 | 946.0 | |
| 20260507053635 | 10 | 0.0 | 0.0 | 0.00 | 0.00 | 0.00 | 75 | 946.0 | |
| 20260507053336 | 10 | 0.0 | 0.0 | 0.00 | 0.00 | 0.00 | 75 | 946.0 | |
| 20260507053035 | 10 | 0.0 | 0.0 | 0.00 | 0.00 | 0.00 | 75 | 946.0 | |
| 20260507052735 | 10 | 0.0 | 0.0 | 0.00 | 0.00 | 0.00 | 75 | 946.8 | |
| 20260507052435 | 10 | 0.0 | 0.0 | 0.00 | 0.00 | 0.00 | 75 | 946.8 | |
| 20260507052136 | 10 | 0.0 | 0.0 | 0.00 | 0.00 | 0.00 | 75 | 946.8 | |
| 20260507051536 | 10 | 0.0 | 0.0 | 0.00 | 0.00 | 0.00 | 75 | 946.8 | |
| 20260507051236 | 10 | 0.0 | 0.0 | 0.00 | 0.00 | 0.00 | 75 | 946.8 | |
| 20260507050635 | 10 | 0.0 | 0.0 | 0.00 | 0.00 | 0.00 | 75 | 946.8 | |
| 20260507050336 | 10 | 0.0 | 0.0 | 0.00 | 0.00 | 0.00 | 76 | 946.0 | |
| 20260507050036 | 10 | 0.0 | 0.0 | 0.00 | 0.00 | 0.00 | 76 | 946.0 | |
| 20260507045736 | 10 | 0.0 | 0.0 | 0.00 | 0.00 | 0.00 | 76 | 946.0 | |
| 20260507045435 | 10 | 0.0 | 0.0 | 0.00 | 0.00 | 0.00 | 76 | 946.0 | |
| 20260507045136 | 10 | 0.0 | 0.0 | 0.00 | 0.00 | 0.00 | 76 | 946.0 | |
| 20260507044836 | 10 | 0.0 | 0.0 | 0.00 | 0.00 | 0.00 | 76 | 946.0 | |
| 20260507044535 | 10 | 0.0 | 0.0 | 0.00 | 0.00 | 0.00 | 76 | 946.0 | |
| 20260507044236 | 10 | 0.0 | 0.0 | 0.00 | 0.00 | 0.00 | 73 | 946.6 | |
| 20260507043935 | 10 | 0.0 | 0.0 | 0.00 | 0.00 | 0.00 | 73 | 946.6 | |
| 20260507043636 | 10 | 0.0 | 0.0 | 0.00 | 0.00 | 0.00 | 73 | 946.6 | |
| 20260507043335 | 10 | 0.0 | 0.0 | 0.00 | 0.00 | 0.00 | 73 | 946.6 | |
| 20260507043036 | 10 | 0.0 | 0.0 | 0.00 | 0.00 | 0.00 | 73 | 946.6 | |
| 20260507042736 | 10 | 0.0 | 0.0 | 0.00 | 0.00 | 0.00 | 73 | 946.6 | |
| 20260507042436 | 10 | 0.0 | 0.0 | 0.00 | 0.00 | 0.00 | 73 | 946.6 | |
| 20260507042135 | 10 | 0.0 | 0.0 | 0.00 | 0.00 | 0.00 | 73 | 946.6 | |
| 20260507041836 | 10 | 0.0 | 0.0 | 0.00 | 0.00 | 0.00 | 73 | 946.6 | |
| 20260507041536 | 10 | 0.0 | 0.0 | 0.00 | 0.00 | 0.00 | 73 | 946.6 | |
| 20260507041236 | 10 | 0.0 | 0.0 | 0.00 | 0.00 | 0.00 | 73 | 946.6 | |
| 20260507040936 | 10 | 0.0 | 0.0 | 0.00 | 0.00 | 0.00 | 72 | 946.0 | |
| 20260507040636 | 10 | 0.0 | 0.0 | 0.00 | 0.00 | 0.00 | 72 | 946.0 | |
| 20260507035735 | 10 | 0.0 | 0.0 | 0.00 | 0.00 | 0.00 | 72 | 946.0 | |
| 20260507035436 | 10 | 0.0 | 0.0 | 0.00 | 0.00 | 0.00 | 72 | 946.0 | |
| 20260507035136 | 10 | 0.0 | 0.0 | 0.00 | 0.00 | 0.00 | 72 | 946.0 | |
| 20260507034535 | 11 | 0.0 | 0.0 | 0.00 | 0.00 | 0.00 | 70 | 946.0 | |
| 20260507033935 | 11 | 0.0 | 0.0 | 0.00 | 0.00 | 0.00 | 70 | 946.0 | |
| 20260507033335 | 11 | 0.0 | 0.0 | 0.00 | 0.00 | 0.00 | 70 | 946.0 | |
| 20260507033036 | 11 | 0.0 | 0.0 | 0.00 | 0.00 | 0.00 | 70 | 946.0 | |
| 20260507032735 | 11 | 0.0 | 0.0 | 0.00 | 0.00 | 0.00 | 70 | 946.0 | |
| 20260507032436 | 11 | 0.0 | 0.0 | 0.00 | 0.00 | 0.00 | 70 | 946.0 | |
| 20260507032136 | 11 | 0.0 | 0.0 | 0.00 | 0.00 | 0.00 | 70 | 946.5 | |
| 20260507031836 | 11 | 0.0 | 0.0 | 0.00 | 0.00 | 0.00 | 70 | 946.5 | |
| 20260507031536 | 11 | 0.0 | 0.0 | 0.00 | 0.00 | 0.00 | 70 | 946.5 | |
| 20260507031236 | 11 | 0.0 | 0.0 | 0.00 | 0.00 | 0.00 | 70 | 946.5 | |
| 20260507030636 | 11 | 0.0 | 0.0 | 0.00 | 0.00 | 0.00 | 70 | 946.0 | |
| 20260507030336 | 11 | 0.0 | 0.0 | 0.00 | 0.00 | 0.00 | 70 | 946.0 | |
| 20260507030035 | 11 | 0.0 | 0.0 | 0.00 | 0.00 | 0.00 | 70 | 946.0 | |
| 20260507025736 | 11 | 0.0 | 0.0 | 0.00 | 0.00 | 0.00 | 70 | 946.0 | |
| 20260507025436 | 11 | 0.0 | 0.0 | 0.00 | 0.00 | 0.00 | 70 | 946.0 | |
| 20260507025135 | 11 | 0.0 | 0.0 | 0.00 | 0.00 | 0.00 | 70 | 946.0 | |
| 20260507024836 | 11 | 0.0 | 0.0 | 0.00 | 0.00 | 0.00 | 70 | 946.0 | |
| 20260507024536 | 11 | 0.0 | 0.0 | 0.00 | 0.00 | 0.00 | 70 | 946.0 | |
| 20260507024236 | 11 | 0.0 | 0.0 | 0.00 | 0.00 | 0.00 | 70 | 946.0 | |
| 20260507023936 | 11 | 0.0 | 0.0 | 0.00 | 0.00 | 0.00 | 70 | 946.0 | |
| 20260507023636 | 11 | 0.0 | 0.0 | 0.00 | 0.00 | 0.00 | 70 | 946.0 | |
| 20260507023036 | 11 | 0.0 | 0.0 | 0.00 | 0.00 | 0.00 | 70 | 946.0 | |
| 20260507022736 | 11 | 0.0 | 0.0 | 0.00 | 0.00 | 0.00 | 70 | 946.0 | |
| 20260507022436 | 12 | 0.0 | 0.0 | 0.00 | 0.00 | 0.00 | 69 | 946.6 | |
| 20260507022136 | 12 | 0.0 | 0.0 | 0.00 | 0.00 | 0.00 | 69 | 946.6 | |
| 20260507021836 | 12 | 0.0 | 0.0 | 0.00 | 0.00 | 0.00 | 69 | 946.6 | |
| 20260507021536 | 12 | 0.0 | 0.0 | 0.00 | 0.00 | 0.00 | 69 | 946.0 | |
| 20260507021236 | 12 | 0.0 | 0.0 | 0.00 | 0.00 | 0.00 | 69 | 946.0 | |
| 20260507020636 | 12 | 0.0 | 0.0 | 0.00 | 0.00 | 0.00 | 68 | 946.8 | |
| 20260507020336 | 12 | 0.0 | 0.0 | 0.00 | 0.00 | 0.00 | 68 | 946.8 | |
| 20260507015436 | 12 | 0.0 | 0.0 | 0.00 | 0.00 | 0.00 | 68 | 946.8 | |
| 20260507015136 | 12 | 0.0 | 0.0 | 0.00 | 0.00 | 0.00 | 68 | 946.8 | |
| 20260507014835 | 12 | 0.0 | 0.0 | 0.00 | 0.00 | 0.00 | 68 | 946.8 | |
| 20260507014536 | 12 | 0.0 | 0.0 | 0.00 | 0.00 | 0.00 | 68 | 946.8 | |
| 20260507014236 | 12 | 0.0 | 0.0 | 0.00 | 0.00 | 0.00 | 68 | 946.8 | |
| 20260507013936 | 12 | 0.0 | 0.0 | 0.00 | 0.00 | 0.00 | 68 | 946.8 | |
| 20260507013635 | 12 | 0.0 | 0.0 | 0.00 | 0.00 | 0.00 | 68 | 946.8 | |
| 20260507013335 | 12 | 0.0 | 0.0 | 0.00 | 0.00 | 0.00 | 68 | 946.8 | |
| 20260507012736 | 12 | 0.0 | 0.0 | 0.00 | 0.00 | 0.00 | 68 | 946.0 | |
| 20260507012435 | 12 | 0.0 | 0.0 | 0.00 | 0.00 | 0.00 | 68 | 946.0 | |
| 20260507012135 | 12 | 0.0 | 0.0 | 0.00 | 0.00 | 0.00 | 68 | 946.0 | |
| 20260507011835 | 12 | 0.0 | 0.0 | 0.00 | 0.00 | 0.00 | 67 | 947.0 | |
| 20260507011535 | 12 | 0.0 | 0.0 | 0.00 | 0.00 | 0.00 | 67 | 947.0 | |
| 20260507010936 | 12 | 0.0 | 0.0 | 0.00 | 0.00 | 0.00 | 67 | 947.0 | |
| 20260507010636 | 12 | 0.0 | 0.0 | 0.00 | 0.00 | 0.00 | 67 | 947.0 | |
| 20260507010336 | 12 | 0.0 | 0.0 | 0.00 | 0.00 | 0.00 | 67 | 947.0 | |
| 20260507010036 | 12 | 0.0 | 0.0 | 0.00 | 0.00 | 0.00 | 67 | 947.0 | |
| 20260507005736 | 12 | 0.0 | 0.0 | 0.00 | 0.00 | 0.00 | 67 | 947.0 | |
| 20260507005435 | 12 | 0.0 | 0.0 | 0.00 | 0.00 | 0.00 | 67 | 947.0 | |
| 20260507005135 | 12 | 0.0 | 0.0 | 0.00 | 0.00 | 0.00 | 67 | 947.0 | |
| 20260507004836 | 12 | 0.0 | 0.0 | 0.00 | 0.00 | 0.00 | 67 | 947.0 | |
| 20260507004536 | 12 | 0.0 | 0.0 | 0.00 | 0.00 | 0.00 | 67 | 947.0 | |
| 20260507004236 | 12 | 0.0 | 0.0 | 0.00 | 0.00 | 0.00 | 66 | 947.1 | |
| 20260507003936 | 12 | 0.0 | 0.0 | 0.00 | 0.00 | 0.00 | 66 | 947.1 | |
| 20260507003636 | 12 | 0.0 | 0.0 | 0.00 | 0.00 | 0.00 | 65 | 947.0 | |
| 20260507003335 | 12 | 0.0 | 0.0 | 0.00 | 0.00 | 0.00 | 65 | 947.0 | |
| 20260507003036 | 12 | 0.0 | 0.0 | 0.00 | 0.00 | 0.00 | 65 | 947.0 | |
| 20260507002736 | 12 | 0.0 | 0.0 | 0.00 | 0.00 | 0.00 | 65 | 947.0 | |
| 20260507002436 | 12 | 0.0 | 0.0 | 0.00 | 0.00 | 0.00 | 62 | 947.4 | |
| 20260507002135 | 12 | 0.0 | 0.0 | 0.00 | 0.00 | 0.00 | 62 | 947.4 | |
| 20260507001836 | 12 | 0.0 | 0.0 | 0.00 | 0.00 | 0.00 | 62 | 947.4 | |
| 20260507001536 | 12 | 0.0 | 0.0 | 0.00 | 0.00 | 0.00 | 62 | 947.4 | |
| 20260507001236 | 12 | 0.0 | 0.0 | 0.00 | 0.00 | 0.00 | 62 | 947.4 | |
| 20260507000936 | 12 | 0.0 | 0.0 | 0.00 | 0.00 | 0.00 | 62 | 947.4 | |
| 20260507000635 | 12 | 0.0 | 0.0 | 0.00 | 0.00 | 0.00 | 62 | 947.4 | |
| 20260507000336 | 12 | 0.0 | 0.0 | 0.00 | 0.00 | 0.00 | 62 | 947.4 | |
| 20260506235736 | 12 | 0.0 | 0.0 | 0.00 | 0.00 | 0.00 | 62 | 947.4 | |
| 20260506235436 | 12 | 0.0 | 0.0 | 0.00 | 0.00 | 0.00 | 62 | 947.4 | |
| 20260506235135 | 12 | 0.0 | 0.0 | 0.00 | 0.00 | 0.00 | 62 | 947.4 | |
| 20260506234535 | 12 | 0.0 | 0.0 | 0.00 | 0.00 | 0.00 | 62 | 947.4 | |
| 20260506234236 | 12 | 0.0 | 0.0 | 0.00 | 0.00 | 0.00 | 62 | 947.4 | |
| 20260506233935 | 12 | 0.0 | 0.0 | 0.00 | 0.00 | 0.00 | 60 | 947.3 | |
| 20260506233635 | 12 | 0.0 | 0.0 | 0.00 | 0.00 | 0.00 | 60 | 947.3 | |
| 20260506233335 | 12 | 0.0 | 0.0 | 0.00 | 0.00 | 0.00 | 60 | 947.3 | |
| 20260506233036 | 12 | 0.0 | 0.0 | 0.00 | 0.00 | 0.00 | 60 | 947.3 | |
| 20260506232435 | 12 | 0.0 | 0.0 | 0.00 | 0.00 | 0.00 | 60 | 947.3 | |
| 20260506232136 | 12 | 0.0 | 0.0 | 0.00 | 0.00 | 0.00 | 60 | 947.3 | |
| 20260506231836 | 12 | 0.0 | 0.0 | 0.00 | 0.00 | 0.00 | 60 | 947.3 | |
| 20260506231535 | 12 | 0.0 | 0.0 | 0.00 | 0.00 | 0.00 | 60 | 947.3 | |
| 20260506231235 | 12 | 0.0 | 0.0 | 0.00 | 0.00 | 0.00 | 60 | 947.3 | |
| 20260506230936 | 12 | 0.0 | 0.0 | 0.00 | 0.00 | 0.00 | 60 | 947.3 | |
| 20260506230336 | 12 | 0.0 | 0.0 | 0.00 | 0.00 | 0.00 | 60 | 947.3 | |
| 20260506230036 | 12 | 0.0 | 0.0 | 0.00 | 0.00 | 0.00 | 60 | 947.3 | |
| 20260506225736 | 12 | 0.0 | 0.0 | 0.00 | 0.00 | 0.00 | 60 | 947.3 |